Location: El Azufral
(10.3513°N, 67.1528°W)
Time: 09:21:01
(UTC+00:00)

Landsat 7 - Pass Details

Date: 13 June 2024
Orbit: 690 x 691 km, 97.9° (Epoch: 19 July)

Event Time Altitude Azimuth Distance (km) Brightness Sun altitude
Exits shadow 23:40:32 - 170° (S) 2,984 6.7 -11.9°
Reaches altitude 10° 23:42:36 10° 171° (S) 2,139 6.0 -12.4°
Maximum altitude 23:47:17 81° 257° (WSW) 703 3.9 -13.4°
Drops below altitude 10° 23:51:58 10° 346° (NNW) 2,138 6.9 -14.4°
Sets 23:54:13 0° 347° (NNW) 3,054 7.7 -14.9°
